Regional Weather Roundup
Issued by NWS

Home | Current Version | Previous Version | Text Only | Print | Product List | Glossary On
Versions: 1 2 3 4 5 6 7 8 9 10 11 12 13 14 15 16 17 18 19 20 21 22 23 24 25 26 27 28 29 30 31 32 33 34 35 36 37 38 39 40 41 42 43 44 45 46 47 48 49 50
000
ASUS43 KLSX 200959
RWRMO

WEATHER SUMMARY FOR MISSOURI
NATIONAL WEATHER SERVICE SPRINGFIELD MO
500 AM CDT SUN APR 20 2014

NOTE: "FAIR" INDICATES FEW OR NO CLOUDS BELOW 12,000 FEET WITH NO
       SIGNIFICANT WEATHER AND/OR OBSTRUCTIONS TO VISIBILITY.
       CURRENT SKY AND/OR WEATHER CONDITIONS ARE NOT AVAILABLE FOR
       CHILLICOTHE AND FARMINGTON.

MOZ001>031-035>038-043-044-053-054-201100-
...NORTHERN AND WESTERN MISSOURI...

CITY           SKY/WX    TMP DP  RH WIND       PRES   REMARKS
KANSAS CTY INT CLOUDY    57  46  66 S10       30.08S
KANSAS C DTWN  CLOUDY    62  46  55 S8        30.08F
LEE`S SUMMIT   CLOUDY    60  44  55 S12       30.10F
ST JOSEPH      PTCLDY    54  46  74 S7        30.07S
KIRKSVILLE     MOCLDY    50  42  74 S9        30.13F

$$
MOZ066>068-077>081-088>096-101>105-201100-
...SOUTHWEST MISSOURI...

CITY           SKY/WX    TMP DP  RH WIND       PRES   REMARKS
SPRINGFIELD    MOCLDY    56  46  69 SE10      30.16R
JOPLIN         CLOUDY    58  48  69 S8        30.14S

$$
MOZ032>034-039>042-045>050-055>058-069>072-201100-
...CENTRAL MISSOURI...

CITY           SKY/WX    TMP DP  RH WIND       PRES   REMARKS
COLUMBIA       PTCLDY    56  41  57 SE10      30.15F
JEFFERSON CITY PTCLDY    52  41  66 SE3       30.16F
ROLLA          PTCLDY    58  42  55 S13       30.17S
SEDALIA        MOCLDY    59  45  59 S9        30.14S
OSAGE BEACH    MOCLDY    57  39  51 SE6       30.17F

$$
MOZ051-052-059>065-201100-
...EAST CENTRAL MISSOURI...

CITY           SKY/WX    TMP DP  RH WIND       PRES   REMARKS
ST LOUIS INTL  MOCLDY    54  42  64 CALM      30.20S
SPIRIT OF STL  PTCLDY    46  41  82 CALM      30.19S
ST CHARLES     PTCLDY    49  45  86 CALM      30.18F

$$
MOZ072>076-082>087-097>100-106>115-201100-
...SOUTH CENTRAL AND SOUTHEAST MISSOURI...

CITY           SKY/WX    TMP DP  RH WIND       PRES   REMARKS
CAPE GIRARDEAU CLEAR     47  44  90 CALM      30.19R
FARMINGTON     PTCLDY    46  43  87 CALM      30.22S
POPLAR BLUFF   CLEAR     49  43  80 CALM      30.17S
WEST PLAINS    CLOUDY    49  42  77 NW3       30.20R

$$



USA.gov is the U.S. government's official web portal to all federal, state and local government web resources and services.